sat.trackr.live / text

‹ back to catalog

STARLINK-30795

NORAD 58118 · 2023-162A

PAYLOAD ACTIVE UNKNOWN

§ Identity

Operator
Country
US
Launch date
2023-10-22
Launch site
AFETR
Launch vehicle
Mass (kg)
RCS (m²)

Purposes: comms

External: N2YO · Heavens-Above · Gunter

§ Orbital elements

Epoch: 2026-05-25T03:19:45.829632Z

Period
94.27 min
Inclination
43.0053°
Eccentricity
0.0001014
Mean motion
15.27570576 rev/d
Perigee alt
482.4 km
Apogee alt
483.8 km
Semi-major
6,861.2 km
B*
-1.2841e-5
RAAN
60.3558°
Arg perigee
253.1676°
Mean anomaly
106.9065°
Rev number
14,400

§ Raw data

STARLINK-307951 58118U 23162A   26145.13872488 -.00000615  00000+0 -12841-4 0  99992 58118  43.0053  60.3558 0001014 253.1676 106.9065 15.27570576144004

JSON: /api/v1/satellites/58118 · /tle

For live sub-satellite position, see the globe view (requires WebGL).

§ Visibility from observer

Set your observer location to see the next 7 days of passes ≥ 10°. The values pass through the URL so the page stays shareable.

No JS? Fill the form by hand. The geolocation button needs JavaScript.